Date String (YYYY-MM-DD hh:mm:ss) UTC,Instrument flags,Ambient pressure (hPa),Sample flow (lpm),Bypass flow (lpm),Sample temperature (°C),Ambient temperature (°C),ASC tube jacket temperature (°C),LED temperature (°C),Box temperature (°C),Sample RH (%),Span deviation,Mass concentration (μg/m³),Mass concentration (μg/m³),Mass concentration (μg/m³)
DateTimeUTC,F1_M11,P_M11,Q1_M11,Q2_M11,T1_M11,T2_M11,T3_M11,T4_M11,T5_M11,U1_M11,ZSPAN_M11,X0_M11,X2_M11,X1_M11
2021-12-22 10:00:00,,0822.4,5.00,0.00,23.0,22.1,00.0,32.2,24.7,03.1,0000.0,0000.86,0000.47,0000.38
2021-12-22 10:01:00,,0822.4,5.01,0.00,23.0,22.0,00.0,32.2,24.6,03.1,0000.0,0000.86,0000.48,0000.39
2021-12-22 10:02:00,,0822.4,4.99,0.00,23.0,22.0,00.0,32.1,24.6,03.1,0000.0,0000.86,0000.47,0000.39
2021-12-22 10:03:00,,0822.5,5.01,0.00,23.0,22.0,00.0,32.1,24.6,03.1,0000.0,0000.82,0000.46,0000.39
2021-12-22 10:04:00,,0822.4,5.01,0.00,23.0,22.0,00.0,32.1,24.6,03.1,0000.0,0000.85,0000.48,0000.40
2021-12-22 10:05:00,,0822.4,5.00,0.00,23.0,21.9,00.0,32.1,24.6,03.2,0000.0,0000.86,0000.48,0000.40
2021-12-22 10:06:00,,0822.3,4.99,0.00,23.0,22.0,00.0,32.1,24.6,03.2,0000.0,0000.97,0000.52,0000.40
2021-12-22 10:07:00,,0822.4,5.01,0.00,23.0,22.0,00.0,32.1,24.6,03.2,0000.0,0000.98,0000.53,0000.40
2021-12-22 10:08:00,,0822.3,5.01,0.00,23.0,22.0,00.0,32.1,24.6,03.1,0000.0,0001.02,0000.54,0000.39
2021-12-22 10:09:00,,0822.1,4.99,0.00,23.0,22.0,00.0,32.1,24.6,03.1,0000.0,0000.93,0000.52,0000.39
2021-12-22 10:10:00,,0822.2,5.01,0.00,23.0,22.0,00.0,32.1,24.7,03.1,0000.0,0000.77,0000.50,0000.39
2021-12-22 10:11:00,,0822.2,5.00,0.00,23.0,22.0,00.0,32.1,24.6,03.1,0000.0,0000.77,0000.50,0000.39
2021-12-22 10:12:00,,0822.3,4.99,0.00,23.0,22.0,00.0,32.1,24.6,03.1,0000.0,0000.78,0000.50,0000.38
2021-12-22 10:13:00,,0822.2,5.00,0.00,23.0,21.9,00.0,32.0,24.6,03.1,0000.0,0000.78,0000.50,0000.38
2021-12-22 10:14:00,,0822.2,5.00,0.00,23.0,21.9,00.0,32.0,24.6,03.1,0000.0,0000.77,0000.49,0000.38
2021-12-22 10:15:00,,0822.3,5.00,0.00,23.0,21.9,00.0,32.0,24.5,03.1,0000.0,0000.75,0000.48,0000.38
2021-12-22 10:16:00,,0822.3,4.99,0.00,23.0,21.9,00.0,32.0,24.5,03.1,0000.0,0000.74,0000.47,0000.37
2021-12-22 10:17:00,,0822.3,5.01,0.00,23.0,21.9,00.0,32.0,24.6,03.1,0000.0,0000.67,0000.46,0000.37
2021-12-22 10:18:00,,0822.2,4.99,0.00,23.0,22.0,00.0,32.0,24.6,03.1,0000.0,0000.66,0000.45,0000.37
2021-12-22 10:19:00,,0822.3,5.03,0.00,23.0,22.0,00.0,32.0,24.6,03.1,0000.0,0000.58,0000.43,0000.37
2021-12-22 10:20:00,,0822.3,4.99,0.00,23.0,22.1,00.0,32.0,24.7,03.1,0000.0,0000.68,0000.45,0000.37
2021-12-22 10:21:00,,0822.2,5.00,0.00,23.0,22.1,00.0,32.0,24.7,03.1,0000.0,0001.21,0000.46,0000.38
2021-12-22 10:22:00,,0822.1,4.99,0.00,23.0,22.1,00.0,32.0,24.6,03.1,0000.0,0001.21,0000.46,0000.38
2021-12-22 10:23:00,,0822.1,5.00,0.00,23.0,22.1,00.0,32.0,24.6,03.1,0000.0,0001.19,0000.45,0000.38
2021-12-22 10:24:00,,0822.1,5.00,0.00,23.0,22.1,00.0,32.0,24.7,03.1,0000.0,0001.19,0000.46,0000.38
2021-12-22 10:25:00,,0822.1,5.01,0.00,23.0,22.1,00.0,32.0,24.6,03.1,0000.0,0001.20,0000.46,0000.38
2021-12-22 10:26:00,,0822.1,5.00,0.00,23.0,22.1,00.0,32.0,24.6,03.1,0000.0,0001.25,0000.47,0000.38
2021-12-22 10:27:00,,0822.1,5.02,0.00,23.0,22.0,00.0,32.0,24.6,03.1,0000.0,0001.22,0000.46,0000.38
2021-12-22 10:28:00,,0822.1,4.99,0.00,23.0,22.0,00.0,32.0,24.6,03.1,0000.0,0001.19,0000.45,0000.38
2021-12-22 10:29:00,,0822.0,5.00,0.00,23.0,22.0,00.0,32.0,24.6,03.1,0000.0,0001.22,0000.46,0000.39
2021-12-22 10:30:00,,0822.0,5.00,0.00,23.0,22.0,00.0,32.0,24.6,03.1,0000.0,0001.26,0000.48,0000.39
2021-12-22 10:31:00,,0822.0,4.99,0.00,23.0,22.0,00.0,32.0,24.6,03.1,0000.0,0001.19,0000.49,0000.39
2021-12-22 10:32:00,,0822.0,4.99,0.00,23.0,22.0,00.0,32.0,24.7,03.1,0000.0,0000.67,0000.48,0000.39
2021-12-22 10:33:00,,0822.0,5.01,0.00,23.0,22.0,00.0,32.0,24.7,03.1,0000.0,0000.66,0000.48,0000.39
2021-12-22 10:34:00,,0822.0,5.00,0.00,23.0,22.1,00.0,32.0,24.8,03.1,0000.0,0000.66,0000.48,0000.39
2021-12-22 10:35:00,,0822.0,5.00,0.00,23.0,22.1,00.0,32.0,24.8,03.1,0000.0,0000.65,0000.47,0000.38
2021-12-22 10:36:00,,0822.0,5.01,0.00,23.1,22.2,00.0,32.0,24.9,03.1,0000.0,0000.64,0000.46,0000.38
2021-12-22 10:37:00,,0822.0,5.00,0.00,23.1,22.2,00.0,32.0,24.9,03.1,0000.0,0000.64,0000.46,0000.39
2021-12-22 10:38:00,,0822.1,5.00,0.00,23.1,22.2,00.0,32.1,24.8,03.1,0000.0,0000.72,0000.47,0000.39
2021-12-22 10:39:00,,0822.1,4.99,0.00,23.1,22.3,00.0,32.1,24.9,03.1,0000.0,0000.74,0000.47,0000.39
2021-12-22 10:40:00,,0822.2,5.01,0.00,23.1,22.3,00.0,32.1,24.9,03.1,0000.0,0000.70,0000.45,0000.38
2021-12-22 10:41:00,,0821.7,5.00,0.00,23.1,22.3,00.0,32.1,24.9,03.0,0000.0,0000.64,0000.43,0000.38
2021-12-22 10:42:00,,0821.8,4.99,0.00,23.1,22.3,00.0,32.1,24.9,02.9,0000.0,0000.57,0000.40,0000.36
2021-12-22 10:43:00,,0821.8,5.01,0.00,23.2,22.4,00.0,32.1,24.9,03.0,0000.0,0000.56,0000.39,0000.36
2021-12-22 10:44:00,,0821.8,5.00,0.00,23.2,22.4,00.0,32.1,24.9,03.0,0000.0,0000.59,0000.39,0000.36
2021-12-22 10:45:00,,0821.8,4.99,0.00,23.2,22.4,00.0,32.1,24.9,03.0,0000.0,0000.60,0000.40,0000.36
2021-12-22 10:46:00,,0821.8,5.01,0.00,23.2,22.4,00.0,32.1,24.9,03.0,0000.0,0000.61,0000.40,0000.36
2021-12-22 10:47:00,,0821.8,4.99,0.00,23.2,22.4,00.0,32.1,24.9,03.0,0000.0,0000.64,0000.42,0000.37
2021-12-22 10:48:00,,0821.8,5.00,0.00,23.2,22.4,00.0,32.1,24.9,03.0,0000.0,0000.63,0000.43,0000.37
2021-12-22 10:49:00,,0821.8,5.01,0.00,23.2,22.4,00.0,32.1,24.9,03.0,0000.0,0000.53,0000.42,0000.37
2021-12-22 10:50:00,,0821.7,4.99,0.00,23.2,22.4,00.0,32.1,24.9,03.0,0000.0,0000.49,0000.40,0000.36
2021-12-22 10:51:00,,0821.7,5.01,0.00,23.2,22.4,00.0,32.1,24.9,03.0,0000.0,0000.49,0000.40,0000.36
2021-12-22 10:52:00,,0821.8,5.00,0.00,23.2,22.4,00.0,32.2,24.9,03.0,0000.0,0000.51,0000.41,0000.36
2021-12-22 10:53:00,,0821.8,5.00,0.00,23.2,22.4,00.0,32.2,25.0,03.0,0000.0,0000.82,0000.44,0000.37
2021-12-22 10:54:00,,0821.8,5.01,0.00,23.2,22.4,00.0,32.2,25.0,03.0,0000.0,0001.24,0000.46,0000.37
2021-12-22 10:55:00,,0821.7,4.98,0.00,23.2,22.4,00.0,32.2,25.0,03.0,0000.0,0001.22,0000.45,0000.37
2021-12-22 10:56:00,,0821.7,5.00,0.00,23.2,22.4,00.0,32.2,24.9,02.9,0000.0,0001.28,0000.47,0000.36
2021-12-22 10:57:00,,0821.7,5.01,0.00,23.2,22.4,00.0,32.2,24.9,03.0,0000.0,0001.30,0000.47,0000.36
2021-12-22 10:58:00,,0821.7,4.99,0.00,23.2,22.4,00.0,32.2,24.9,03.0,0000.0,0001.26,0000.45,0000.35
2021-12-22 10:59:00,,0821.7,5.00,0.00,23.2,22.4,00.0,32.2,24.9,03.0,0000.0,0001.25,0000.44,0000.34
